FW6253 Weather Reports


Display with metric or nautical units.
time (UTC)temp
F
wind
direction
speed
MPH
gust
MPH
rain 1hr
in
rain 24hr
in
rain mn
in
humidity
%
barometer
mb
20260506033553 77 197 3.0 10.0 0.00 0.00 0.00 86 1007.9
20260506033057 77 121 2.0 8.0 0.00 0.00 0.00 86 1007.7
20260506032554 77 140 2.0 8.0 0.00 0.00 0.00 86 1007.5
20260506032054 77 132 2.0 8.0 0.00 0.00 0.00 86 1007.5
20260506031559 77 117 2.0 8.0 0.00 0.00 0.00 86 1007.3
20260506031054 77 105 2.0 8.0 0.00 0.00 0.00 85 1007.3
20260506030553 78 123 2.0 8.0 0.00 0.00 0.00 85 1007.3
20260506030057 78 175 3.0 8.0 0.00 0.00 0.00 85 1007.3
20260506025554 78 128 2.0 11.0 0.00 0.00 0.00 85 1007.2
20260506025053 78 198 2.0 11.0 0.00 0.00 0.00 84 1007.1
20260506024600 78 152 2.0 9.0 0.00 0.00 0.00 84 1007.0
20260506024053 79 144 2.0 12.0 0.00 0.00 0.00 83 1006.8
20260506023554 79 133 1.0 12.0 0.00 0.00 0.00 83 1006.7
20260506023057 79 130 2.0 9.0 0.00 0.00 0.00 82 1006.7
20260506022554 79 152 2.0 9.0 0.00 0.00 0.00 82 1006.6
20260506022054 80 137 4.0 9.0 0.00 0.00 0.00 81 1006.5
20260506021554 80 125 3.0 8.0 0.00 0.00 0.00 81 1006.5
20260506021057 80 145 2.0 8.0 0.00 0.00 0.00 80 1006.5
20260506020553 80 134 1.0 9.0 0.00 0.00 0.00 79 1006.5
20260506020117 80 0 2.0 9.0 0.00 0.00 0.00 79 1006.5
20260506015554 80 119 1.0 4.0 0.00 0.00 0.00 79 1006.4
20260506015053 80 123 1.0 6.0 0.00 0.00 0.00 79 1006.4
20260506014554 80 0 0.0 6.0 0.00 0.00 0.00 79 1006.2
20260506014056 80 118 0.0 4.0 0.00 0.00 0.00 79 1006.2
20260506013553 80 0 0.0 3.0 0.00 0.00 0.00 78 1006.2
20260506013052 81 103 0.0 3.0 0.00 0.00 0.00 78 1006.0
20260506012553 81 94 0.0 4.0 0.00 0.00 0.00 78 1006.0
20260506012053 81 0 0.0 4.0 0.00 0.00 0.00 78 1006.0
20260506011552 81 0 1.0 4.0 0.00 0.00 0.00 77 1006.0
20260506011055 81 0 1.0 4.0 0.00 0.00 0.00 77 1005.9
20260506010553 81 132 0.0 4.0 0.00 0.00 0.00 77 1005.8
20260506010055 82 0 0.0 4.0 0.00 0.00 0.00 76 1005.8
20260506005554 82 96 0.0 4.0 0.00 0.00 0.00 76 1005.8
20260506005053 82 92 0.0 4.0 0.00 0.00 0.00 75 1005.7
20260506004551 83 93 1.0 4.0 0.00 0.00 0.00 74 1005.7
20260506004053 83 0 1.0 6.0 0.00 0.00 0.00 73 1005.7
20260506003553 83 111 1.0 6.0 0.00 0.00 0.00 73 1005.7
20260506003053 83 0 0.0 3.0 0.00 0.00 0.00 73 1005.7
20260506002553 83 144 0.0 3.0 0.00 0.00 0.00 73 1005.7
20260506002053 83 146 0.0 6.0 0.00 0.00 0.00 73 1005.6
20260506001603 83 0 0.0 6.0 0.00 0.00 0.00 72 1005.6
20260506001053 83 150 1.0 3.0 0.00 0.00 0.00 72 1005.6
20260506000559 83 0 1.0 4.0 0.00 0.00 0.00 72 1005.5
20260506000121 83 0 0.0 4.0 0.00 0.00 0.00 72 1005.6
20260505235552 83 123 1.0 4.0 0.00 0.00 0.00 72 1005.5
20260505235052 83 0 1.0 4.0 0.00 0.00 0.00 72 1005.5
20260505234552 84 113 2.0 4.0 0.00 0.00 0.00 71 1005.4
20260505234055 84 114 0.0 4.0 0.00 0.00 0.00 71 1005.4
20260505233553 84 114 2.0 7.0 0.00 0.00 0.00 72 1005.5
20260505233054 84 0 2.0 7.0 0.00 0.00 0.00 71 1005.4
20260505232551 84 84 2.0 7.0 0.00 0.00 0.00 71 1005.4
20260505232053 84 135 0.0 7.0 0.00 0.00 0.00 71 1005.4
20260505231557 84 134 1.0 7.0 0.00 0.00 0.00 70 1005.4
20260505231053 85 204 3.0 10.0 0.00 0.00 0.00 69 1005.3
20260505230553 85 205 3.0 10.0 0.00 0.00 0.00 68 1005.4
20260505230052 85 174 3.0 10.0 0.00 0.00 0.00 69 1005.4
20260505225554 85 159 3.0 10.0 0.00 0.00 0.00 68 1005.4
20260505225053 85 186 3.0 9.0 0.00 0.00 0.00 68 1005.4
20260505224552 86 125 1.0 9.0 0.00 0.00 0.00 68 1005.4
20260505224054 85 184 1.0 10.0 0.00 0.00 0.00 69 1005.4
20260505223554 85 203 4.0 10.0 0.00 0.00 0.00 69 1005.5
20260505223059 85 144 2.0 7.0 0.00 0.00 0.00 69 1005.4
20260505222551 85 195 2.0 7.0 0.00 0.00 0.00 69 1005.5
20260505222052 84 212 2.0 9.0 0.00 0.00 0.00 69 1005.4
20260505221558 85 161 3.0 10.0 0.00 0.00 0.00 69 1005.5
20260505221051 85 219 2.0 10.0 0.00 0.00 0.00 69 1005.5
20260505220553 85 153 3.0 10.0 0.00 0.00 0.00 68 1005.6
20260505220105 85 202 3.0 10.0 0.00 0.00 0.00 69 1005.5
20260505215553 85 178 2.0 8.0 0.00 0.00 0.00 69 1005.6
20260505215053 84 136 3.0 8.0 0.00 0.00 0.00 69 1005.6
20260505214601 84 163 2.0 6.0 0.00 0.00 0.00 70 1005.8
20260505214053 84 168 2.0 8.0 0.00 0.00 0.00 69 1005.7
20260505213553 84 148 2.0 12.0 0.00 0.00 0.00 69 1005.9
20260505213052 85 201 2.0 12.0 0.00 0.00 0.00 69 1005.9
20260505212552 85 185 2.0 8.0 0.00 0.00 0.00 68 1006.0
20260505212052 84 150 2.0 8.0 0.00 0.00 0.00 69 1006.0
20260505211626 84 139 3.0 9.0 0.00 0.00 0.00 69 1006.1
20260505211054 84 240 3.0 9.0 0.00 0.00 0.00 69 1006.1
20260505210552 84 165 3.0 9.0 0.00 0.00 0.00 69 1006.2
20260505210055 83 178 2.0 9.0 0.00 0.00 0.00 71 1006.4
20260505205552 83 112 2.0 9.0 0.00 0.00 0.00 70 1006.5
20260505205055 84 178 2.0 9.0 0.00 0.00 0.00 69 1006.6
20260505204602 84 159 3.0 8.0 0.00 0.00 0.00 69 1006.6
20260505204053 85 119 2.0 7.0 0.00 0.00 0.00 68 1006.7
20260505203553 84 152 2.0 9.0 0.00 0.00 0.00 70 1006.7
20260505203058 85 208 1.0 9.0 0.00 0.00 0.00 70 1006.8
20260505202553 84 149 3.0 9.0 0.00 0.00 0.00 69 1007.0
20260505202053 84 155 3.0 8.0 0.00 0.00 0.00 70 1007.0
20260505201552 84 189 3.0 9.0 0.00 0.00 0.00 69 1007.0
20260505201053 84 164 4.0 9.0 0.00 0.00 0.00 70 1007.0
20260505200550 83 161 3.0 7.0 0.00 0.00 0.00 72 1007.1
20260505200055 82 214 2.0 6.0 0.00 0.00 0.00 73 1007.2
20260505195552 83 157 2.0 8.0 0.00 0.00 0.00 71 1007.3
20260505195055 83 208 3.0 8.0 0.00 0.00 0.00 71 1007.3
20260505194554 83 177 2.0 6.0 0.00 0.00 0.00 71 1007.4
20260505194053 83 215 3.0 7.0 0.00 0.00 0.00 72 1007.5
20260505193553 83 163 1.0 7.0 0.00 0.00 0.00 73 1007.4
20260505193053 82 164 4.0 9.0 0.00 0.00 0.00 72 1007.5
20260505192556 82 184 4.0 9.0 0.00 0.00 0.00 72 1007.5
20260505192053 83 169 3.0 9.0 0.00 0.00 0.00 71 1007.6
20260505191603 82 236 3.0 9.0 0.00 0.00 0.00 73 1007.6
20260505191055 82 186 3.0 8.0 0.00 0.00 0.00 72 1007.7
20260505190554 82 145 3.0 11.0 0.00 0.00 0.00 73 1007.7
20260505190108 82 191 4.0 11.0 0.00 0.00 0.00 74 1007.8
20260505185553 81 198 3.0 10.0 0.00 0.00 0.00 74 1008.0
20260505185050 81 203 5.0 10.0 0.00 0.00 0.00 75 1008.3
20260505184600 80 145 2.0 8.0 0.00 0.00 0.00 76 1008.2
20260505184054 80 246 3.0 7.0 0.00 0.00 0.00 77 1008.3
20260505183549 79 214 2.0 8.0 0.00 0.00 0.00 77 1008.4
20260505183101 79 187 3.0 8.0 0.00 0.00 0.00 78 1008.4
20260505182553 79 187 2.0 9.0 0.00 0.00 0.00 78 1008.5
20260505182053 79 200 4.0 9.0 0.00 0.00 0.00 77 1008.7
20260505181640 78 207 3.0 10.0 0.00 0.00 0.00 79 1008.7
20260505181055 78 201 3.0 10.0 0.00 0.00 0.00 78 1008.6
20260505180554 78 202 2.0 9.0 0.00 0.00 0.00 79 1008.7
20260505180108 78 211 2.0 9.0 0.00 0.00 0.00 80 1008.6
20260505175553 78 265 4.0 8.0 0.00 0.00 0.00 80 1008.6
20260505175053 78 196 2.0 6.0 0.00 0.00 0.00 81 1008.7
20260505174559 77 201 2.0 6.0 0.00 0.00 0.00 81 1008.7
20260505174050 77 242 1.0 7.0 0.00 0.00 0.00 81 1008.8
20260505173550 77 169 2.0 8.0 0.00 0.00 0.00 81 1008.7
20260505173058 77 166 3.0 8.0 0.00 0.00 0.00 82 1008.8
20260505172553 77 190 4.0 8.0 0.00 0.00 0.00 81 1008.9
20260505172053 77 210 2.0 10.0 0.00 0.00 0.00 83 1008.8
20260505171603 76 156 3.0 11.0 0.00 0.00 0.00 82 1008.9
20260505171054 76 166 2.0 12.0 0.00 0.00 0.00 82 1008.9
20260505170554 77 169 3.0 12.0 0.00 0.00 0.00 82 1008.9
20260505170057 76 200 4.0 11.0 0.00 0.00 0.00 82 1008.8
20260505165554 76 219 3.0 9.0 0.00 0.00 0.00 84 1008.8
20260505165053 75 136 3.0 7.0 0.00 0.00 0.00 85 1008.7
20260505164554 75 187 1.0 6.0 0.00 0.00 0.00 85 1008.7
20260505164054 74 195 2.0 9.0 0.00 0.00 0.00 86 1008.8
20260505163559 74 185 2.0 11.0 0.00 0.00 0.00 87 1008.7
20260505163054 74 213 3.0 11.0 0.00 0.00 0.00 88 1008.8
20260505162553 73 201 3.0 11.0 0.00 0.00 0.00 88 1008.7
20260505162054 73 234 4.0 11.0 0.00 0.00 0.00 89 1008.8
20260505161553 72 169 4.0 10.0 0.00 0.00 0.00 89 1008.8
20260505161054 72 215 4.0 9.0 0.00 0.00 0.00 90 1008.8
20260505160554 72 223 3.0 11.0 0.00 0.00 0.00 90 1008.9
20260505153058 71 215 4.0 14.0 0.00 0.00 0.00 93 1008.8
20260505152552 71 221 2.0 9.0 0.00 0.00 0.00 93 1008.9
20260505152053 70 160 3.0 9.0 0.00 0.00 0.00 93 1008.8
20260505151556 70 190 3.0 8.0 0.00 0.00 0.00 93 1008.7
20260505151057 70 176 2.0 8.0 0.00 0.00 0.00 93 1008.8
20260505150553 70 194 3.0 10.0 0.00 0.00 0.00 93 1008.7
20260505140553 69 184 4.0 10.0 0.00 0.00 0.00 93 1008.6
20260505124557 68 204 2.0 10.0 0.00 0.00 0.00 92 1008.4
20260505124054 68 161 3.0 10.0 0.00 0.00 0.00 92 1008.3
20260505123552 68 169 3.0 11.0 0.00 0.00 0.00 92 1008.1
20260505123058 68 221 4.0 11.0 0.00 0.00 0.00 92 1008.0
20260505122552 68 165 4.0 11.0 0.00 0.00 0.00 92 1007.9
20260505122050 68 236 4.0 11.0 0.00 0.00 0.00 92 1007.9
20260505121556 68 207 5.0 10.0 0.00 0.00 0.00 92 1007.7
20260505121050 68 138 2.0 9.0 0.00 0.00 0.00 92 1007.6
20260505120550 68 196 3.0 9.0 0.00 0.00 0.00 92 1007.6
20260505120111 68 163 2.0 10.0 0.00 0.00 0.00 92 1007.6
20260505115549 68 182 4.0 10.0 0.00 0.00 0.00 92 1007.5
20260505115049 68 223 2.0 8.0 0.00 0.00 0.00 92 1007.5
20260505114600 68 159 3.0 8.0 0.00 0.00 0.00 92 1007.4
20260505114054 68 170 3.0 9.0 0.00 0.00 0.00 92 1007.4
20260505113555 68 205 4.0 11.0 0.00 0.00 0.00 92 1007.5
20260505113053 68 202 4.0 11.0 0.00 0.00 0.00 92 1007.6
20260505112553 68 208 5.0 11.0 0.00 0.00 0.00 92 1007.4
20260505112051 68 202 4.0 11.0 0.00 0.00 0.00 92 1007.3
20260505111553 68 221 4.0 13.0 0.00 0.00 0.00 92 1007.5
20260505111052 68 200 6.0 13.0 0.00 0.00 0.00 92 1007.5
20260505110555 68 155 4.0 14.0 0.00 0.00 0.00 92 1007.5
20260505110113 68 195 5.0 14.0 0.00 0.00 0.00 92 1007.4
20260505102055 68 159 4.0 14.0 0.00 0.00 0.00 91 1007.6
20260505101604 68 202 5.0 14.0 0.00 0.00 0.00 91 1007.6
20260505101053 68 192 3.0 12.0 0.00 0.00 0.00 91 1007.6
20260505100553 68 200 3.0 12.0 0.00 0.00 0.00 91 1007.7
20260505100056 68 178 4.0 12.0 0.00 0.00 0.00 91 1007.6
20260505095553 68 194 4.0 12.0 0.00 0.00 0.00 91 1007.6
20260505095050 69 160 4.0 11.0 0.00 0.00 0.00 91 1007.6
20260505094558 69 198 4.0 10.0 0.00 0.00 0.00 91 1007.7
20260505094052 69 189 4.0 10.0 0.00 0.00 0.00 91 1007.7
20260505093552 69 200 3.0 10.0 0.00 0.00 0.00 91 1007.7
20260505093056 69 185 5.0 10.0 0.00 0.00 0.00 91 1007.7
20260505092553 69 192 4.0 11.0 0.00 0.00 0.00 91 1007.9
20260505092053 69 143 4.0 11.0 0.00 0.00 0.00 91 1007.9
20260505091558 69 199 4.0 11.0 0.00 0.00 0.00 91 1007.9
20260505091051 69 188 3.0 11.0 0.00 0.00 0.00 91 1007.9
20260505090552 69 165 4.0 13.0 0.00 0.00 0.00 91 1007.8
20260505090100 69 198 4.0 13.0 0.00 0.00 0.00 91 1007.8
20260505085552 69 167 5.0 13.0 0.00 0.00 0.00 91 1007.9
20260505085052 69 161 5.0 11.0 0.00 0.00 0.00 91 1007.8
20260505084605 69 165 3.0 15.0 0.00 0.00 0.00 90 1007.8
20260505084056 69 197 5.0 15.0 0.00 0.00 0.00 91 1007.8
20260505083551 69 140 4.0 9.0 0.00 0.00 0.00 91 1007.9
20260505083109 69 213 4.0 8.0 0.00 0.00 0.00 90 1008.0
20260505082556 69 163 4.0 10.0 0.00 0.00 0.00 90 1008.1
20260505082052 69 202 2.0 10.0 0.00 0.00 0.00 90 1008.1
20260505081605 69 190 4.0 12.0 0.00 0.00 0.00 90 1008.2
20260505081052 69 199 3.0 15.0 0.00 0.00 0.00 90 1008.1
20260505080551 69 202 5.0 15.0 0.00 0.00 0.00 90 1008.1
20260505080104 69 138 4.0 14.0 0.00 0.00 0.00 90 1008.3
20260505075552 69 211 4.0 14.0 0.00 0.00 0.00 90 1008.3
20260505075055 69 185 6.0 14.0 0.00 0.00 0.00 90 1008.3
20260505074552 69 186 4.0 14.0 0.00 0.00 0.00 89 1008.4
20260505074052 69 174 2.0 10.0 0.00 0.00 0.00 89 1008.3
20260505073552 69 201 4.0 10.0 0.00 0.00 0.00 89 1008.5
20260505073059 69 157 5.0 11.0 0.00 0.00 0.00 89 1008.7
20260505072552 69 210 4.0 11.0 0.00 0.00 0.00 89 1008.8
20260505072052 69 222 3.0 11.0 0.00 0.00 0.00 89 1008.8
20260505071554 69 222 4.0 11.0 0.00 0.00 0.00 89 1008.9
20260505071051 69 198 3.0 10.0 0.00 0.00 0.00 89 1009.0
20260505070552 69 200 4.0 11.0 0.00 0.00 0.00 89 1009.1
20260505070106 69 140 4.0 11.0 0.00 0.00 0.00 88 1009.2
20260505065551 69 170 5.0 17.0 0.00 0.00 0.00 88 1009.1
20260505065053 69 209 5.0 17.0 0.00 0.00 0.00 88 1009.3
20260505064631 69 161 5.0 11.0 0.00 0.00 0.00 88 1009.3
20260505064052 70 167 4.0 11.0 0.00 0.00 0.00 88 1009.2
20260505063553 70 212 4.0 15.0 0.00 0.00 0.00 88 1009.4
20260505063053 70 161 4.0 15.0 0.00 0.00 0.00 88 1009.5
20260505062552 70 209 5.0 12.0 0.00 0.00 0.00 87 1009.4
20260505062053 70 174 4.0 10.0 0.00 0.00 0.00 87 1009.3
20260505061554 70 184 5.0 13.0 0.00 0.00 0.00 87 1009.2
20260505061055 70 198 5.0 13.0 0.00 0.00 0.00 87 1009.3
20260505060557 70 163 6.0 13.0 0.00 0.00 0.00 87 1009.4
20260505060056 70 178 4.0 14.0 0.00 0.00 0.00 87 1009.5
20260505055554 70 179 4.0 14.0 0.00 0.00 0.00 87 1009.5
20260505055055 70 184 3.0 10.0 0.00 0.00 0.00 87 1009.6
20260505054554 70 132 3.0 10.0 0.00 0.00 0.00 87 1009.7
20260505054055 70 145 3.0 16.0 0.00 0.00 0.00 87 1009.6
20260505053554 70 177 3.0 16.0 0.00 0.00 0.00 87 1009.7
20260505053057 70 123 4.0 16.0 0.00 0.00 0.00 87 1009.6
20260505052555 70 194 5.0 14.0 0.00 0.00 0.00 87 1009.5
20260505052051 70 131 6.0 14.0 0.00 0.00 0.00 87 1009.4
20260505051554 70 173 3.0 14.0 0.00 0.00 0.00 86 1009.5
20260505051053 70 198 4.0 14.0 0.00 0.00 0.00 87 1009.5
20260505050554 70 159 5.0 14.0 0.00 0.00 0.00 86 1009.4
20260505050106 71 221 5.0 11.0 0.00 0.00 0.00 86 1009.4
20260505041602 72 242 4.0 9.0 0.00 0.00 0.00 84 1009.7
20260505041051 72 216 1.0 9.0 0.00 0.00 0.00 83 1009.8
20260505040554 72 151 3.0 12.0 0.00 0.00 0.00 83 1009.7
20260505035557 72 207 4.0 11.0 0.00 0.00 0.00 82 1009.7
20260505035054 72 178 4.0 12.0 0.00 0.00 0.00 82 1009.6
20260505034608 73 179 4.0 12.0 0.00 0.00 0.00 82 1009.4
20260505034054 73 148 3.0 11.0 0.00 0.00 0.00 81 1009.4